[[{"header":{"parameterUnit":"m.s-1","parameterCategory":2,"la1":30.2991,"la2":30.254,"lo1":-89.0895,"lo2":-89.0444,"dy":0.0017,"dx":0.0017,"nx":28,"ny":28,"refTime":"2024-05-26T03:00:00:Z","depth":"0","parameterNumber":2,"parameterNumberName":"U-component_of_CURRENTS"},"data":[0,0,0,0,0,0,0,0,0,0,0,0,0,0,0,0,0,0,0,0,0,0,0,0,0,0,0,0,0,0,0,0,0,0,0,0,0,0,0,0,0,0,0,0,0,0,0,0,0,0,0,0,0,0,0,0,0,0,0.3043,0.3044,0,0.315,0.3151,0.3152,0.3131,0.3129,0.3127,0.3125,0.3238,0.3243,0.3248,0,0,0,0,0,0,0,0,0,0,0,0,0,0.289,0.2893,0.3043,0.3044,0.3046,0.315,0.3151,0.3153,0.3132,0.3129,0.3127,0.3124,0.3236,0.3242,0.3248,0,0,0,0,0,0,0,0,0,0,0,0,0,0.2973,0.2893,0.3043,0.3047,0.3048,0.3149,0.3151,0.3153,0.3132,0.3129,0.3126,0.3123,0.3235,0.3242,0.3249,0.3355,0,0,0.3271,0.3275,0,0,0,0,0,0,0,0,0.2969,0.2979,0.3045,0.3047,0.3049,0.3123,0.3138,0.3221,0.3133,0.3102,0.3125,0.3122,0.3202,0.3212,0.324,0.3361,0.3365,0.3272,0.3276,0.328,0.3282,0,0,0,0,0,0,0,0.2963,0.2975,0.3086,0.3047,0.3049,0.3067,0.3075,0.3154,0.3168,0.3104,0.3103,0.3114,0.3202,0.3233,0.3242,0.3367,0.3272,0.3278,0.3283,0.3286,0.3547,0.3549,0,0,0,0,0,0,0.2948,0.297,0.3083,0.309,0.2999,0.3072,0.3081,0.3103,0.3167,0.3174,0.3116,0.3112,0.3222,0.3234,0.3246,0.3367,0.328,0.3286,0.3291,0.3544,0.3548,0.355,0,0,0,0,0,0,0.2945,0.2958,0.3079,0.303,0.3046,0.3077,0.3103,0.3107,0.314,0.3176,0.3182,0.3144,0.322,0.3236,0.3331,0.3371,0.329,0.3296,0.3541,0.3545,0.3549,0.3615,0,0,0,0,0,0,0.294,0.2956,0.2976,0.303,0.3049,0.3158,0.3106,0.3111,0.3151,0.3147,0.3204,0.321,0.3219,0.3321,0.3339,0.338,0.3302,0.3538,0.3543,0.3548,0.361,0.3621,0.363,0,0,0,0,0,0.2934,0.2985,0.2977,0.2991,0.3072,0.3161,0.3174,0.3184,0.3155,0.3197,0.3226,0.3208,0.3361,0.333,0.3351,0.3394,0.3536,0.3542,0.3547,0.3605,0.3619,0.363,0,0,0,0,0,0,0.293,0.2989,0.2981,0.3045,0.3101,0.3156,0.3202,0.3202,0.326,0.3255,0.3266,0.3279,0.3374,0.3386,0.335,0.3482,0.3438,0.3448,0.3475,0.3488,0.3498,0.3491,0.3308,0,0,0,0,0,0.2938,0.2991,0.3042,0.3096,0.3128,0.3166,0.3202,0.3213,0.3266,0.3286,0.3321,0.336,0.3419,0.3451,0.351,0.3604,0.3584,0.3637,0.3647,0.3656,0.3665,0.3666,0.3676,0.3569,0.3569,0.3569,0,0,0.2949,0.299,0.3018,0.3099,0.3143,0.3206,0.3182,0.3257,0.3301,0.3296,0.338,0.3415,0.3455,0.3546,0.3587,0.3557,0.3679,0.3663,0.367,0.3674,0.3673,0.3683,0.3692,0.3573,0.3572,0.3572,0,0,0.3,0.3041,0.3094,0.3148,0.322,0.3258,0.328,0.335,0.3374,0.3462,0.3461,0.3524,0.3613,0.3648,0.3673,0.3785,0.374,0.3794,0.3839,0.384,0.3848,0.3855,0.3845,0.3851,0.379,0.379,0.379,0,0.3002,0.3076,0.3127,0.3189,0.3237,0.328,0.3343,0.3396,0.3481,0.3512,0.3492,0.3618,0.3658,0.3753,0.3784,0.3808,0.3789,0.3785,0.385,0.3857,0.3862,0.3851,0.3856,0.3794,0.3793,0.3793,0.3793,0,0.3087,0.3142,0.3192,0.3275,0.3338,0.3418,0.3481,0.3546,0.3569,0.36,0.3697,0.3751,0.3807,0.3836,0.3849,0.3923,0.389,0.3866,0.381,0.3877,0.3861,0.3865,0.3799,0.3798,0.3797,0.3796,0,0,0.309,0.322,0.323,0.3255,0.339,0.3431,0.3546,0.364,0.3663,0.3753,0.3784,0.3912,0.3913,0.3944,0.3967,0.3981,0.4015,0.3943,0.3941,0.3918,0.4004,0.4038,0.4044,0.3988,0.3989,0.399,0.3976,0,0.3133,0.3229,0.3305,0.339,0.3442,0.3529,0.3606,0.3689,0.3747,0.3792,0.3864,0.3911,0.396,0.3966,0.4006,0.4012,0.4029,0.4021,0.3957,0.3955,0.3965,0.4052,0.4005,0.3994,0.398,0.398,0.3981,0,0.3178,0.3235,0.3318,0.3403,0.3432,0.3489,0.3587,0.3664,0.3766,0.3803,0.3889,0.3919,0.4015,0.3996,0.4073,0.4059,0.4048,0.4041,0.4039,0.4051,0.3998,0.3928,0.4001,0.3975,0.3986,0.3986,0.3985,0,0.3107,0.3232,0.3282,0.3321,0.3437,0.348,0.3549,0.366,0.3711,0.3802,0.3831,0.3933,0.3973,0.4,0.4069,0.4043,0.4107,0.4052,0.4078,0.4078,0.4019,0.4014,0.4048,0.4078,0.4078,0.4078,0.4079,0,0.311,0.3139,0.3237,0.3254,0.3295,0.3402,0.3449,0.3535,0.3638,0.3703,0.3819,0.3889,0.3972,0.4042,0.406,0.4124,0.4112,0.4112,0.4092,0.4045,0.4042,0.4,0.3967,0.4078,0.4078,0.4078,0.4078,0,0.3014,0.3091,0.313,0.323,0.3257,0.3274,0.3393,0.342,0.3549,0.3637,0.3671,0.385,0.3971,0.4059,0.4104,0.4124,0.4066,0.4164,0.4115,0.4093,0.4071,0.4043,0.3824,0.3702,0.4156,0.4157,0.4158,0,0.2975,0.2988,0.3066,0.3076,0.3119,0.3171,0.3206,0.3351,0.3411,0.3633,0.367,0.3836,0.3981,0.4109,0.4168,0.4218,0.4096,0.4165,0.4123,0.4099,0.4051,0.3828,0.3724,0.4056,0.4056,0.4056,0.4056,0,0.2894,0.2915,0.2942,0.2967,0.2993,0.3031,0.3117,0.3157,0.3348,0.346,0.3648,0.3784,0.3998,0.4091,0.42,0.4214,0.4015,0.4165,0.4141,0.4002,0.3754,0.3618,0.4029,0.4055,0.4055,0.4055,0.4056,0.4056,0.2819,0.2811,0.2845,0.2862,0.2883,0.2914,0.2927,0.3049,0.316,0.3352,0.3545,0.3733,0.3995,0.4176,0.4146,0.4147,0.4015,0.4081,0.4053,0.383,0.3708,0.4139,0.4152,0.4153,0.4153,0.4153,0.4154,0,0.2741,0.2742,0.2746,0.2765,0.2753,0.2808,0.2874,0.2894,0.3005,0.3238,0.3416,0.3723,0.3885,0.4029,0.4175,0.4084,0.3815,0.3996,0.3685,0.3588,0.4005,0.4007,0.3988,0.3988,0.3988,0.3988,0.3988,0.3988,0.2698,0.2674,0.2684,0.2649,0.2654,0.2632,0.2655,0.271,0.2849,0.3056,0.3247,0.3429,0.384,0.4135,0.4147,0.4045,0.3732,0.3596,0.3502,0.3883,0.3887,0.3892,0.3889,0.3846,0.3846,0.295,0.2944,0.2939]},{"header":{"parameterUnit":"m.s-1","parameterCategory":2,"la1":30.2991,"la2":30.254,"lo1":-89.0895,"lo2":-89.0444,"dy":0.0017,"dx":0.0017,"nx":28,"ny":28,"refTime":"2024-05-26T03:00:00:Z","depth":"0","parameterNumber":3,"parameterNumberName":"V-component_of_CURRENTS"},"data":[0,0,0,0,0,0,0,0,0,0,0,0,0,0,0,0,0,0,0,0,0,0,0,0,0,0,0,0,0,0,0,0,0,0,0,0,0,0,0,0,0,0,0,0,0,0,0,0,0,0,0,0,0,0,0,0,0,0,0.0144,0.0143,0,0.0073,0.0072,0.0071,0.0003,0.0002,0.0002,0.0001,-0.0111,-0.0113,-0.0115,0,0,0,0,0,0,0,0,0,0,0,0,0,0.0161,0.0162,0.0144,0.0143,0.0143,0.0073,0.0072,0.0071,0.0003,0.0002,0.0001,0.0001,-0.011,-0.0113,-0.0115,0,0,0,0,0,0,0,0,0,0,0,0,0,0.0126,0.0162,0.0144,0.0103,0.0099,0.0073,0.0072,0.007,0.0003,0.0002,0.0001,0.0,-0.0109,-0.0112,-0.0116,-0.012,0,0,-0.0127,-0.0128,0,0,0,0,0,0,0,0,0.0128,0.0125,0.0109,0.0106,0.0101,0.0048,0.0037,0.0006,0.0003,0.0036,0.0001,-0.0,-0.0058,-0.0066,-0.0081,-0.0126,-0.013,-0.0127,-0.0129,-0.0131,-0.0132,0,0,0,0,0,0,0,0.0131,0.0127,0.0113,0.0109,0.0104,0.0068,0.0062,0.0031,-0.0008,0.0033,0.0029,0.0026,-0.0062,-0.0078,-0.0085,-0.0132,-0.0127,-0.013,-0.0133,-0.0134,-0.0214,-0.0214,0,0,0,0,0,0,0.015,0.013,0.0115,0.0111,0.0116,0.0069,0.0062,0.0064,-0.0007,-0.0018,0.0027,0.0023,-0.0071,-0.008,-0.0089,-0.0089,-0.0131,-0.0134,-0.0136,-0.0214,-0.0214,-0.0214,0,0,0,0,0,0,0.015,0.0149,0.0118,0.0121,0.0115,0.007,0.0072,0.0063,0.005,-0.0011,-0.0023,0.0025,-0.0072,-0.0084,-0.0106,-0.0094,-0.0136,-0.0139,-0.0214,-0.0214,-0.0214,-0.0095,0,0,0,0,0,0,0.0151,0.015,0.0155,0.0123,0.0115,0.0118,0.0073,0.0062,0.0051,0.0046,-0.0017,-0.0028,-0.0074,-0.01,-0.011,-0.01,-0.0142,-0.0215,-0.0214,-0.0214,-0.0099,-0.0091,-0.0084,0,0,0,0,0,0.0152,0.0175,0.0156,0.0154,0.0125,0.0119,0.0112,0.0074,0.0053,0.0057,0.0014,-0.0026,-0.0108,-0.0102,-0.0114,-0.0104,-0.0215,-0.0214,-0.0214,-0.0102,-0.0092,-0.0084,0,0,0,0,0,0,0.0185,0.0169,0.0147,0.0163,0.0146,0.0109,0.011,0.0086,0.0055,0.0048,-0.0014,-0.0028,-0.0047,-0.0093,-0.0086,-0.0132,-0.0172,-0.0174,-0.0083,-0.0075,-0.0067,-0.0038,-0.0145,0,0,0,0,0,0.0196,0.0208,0.0181,0.0194,0.0188,0.015,0.0141,0.0119,0.009,0.0075,0.0033,-0.0018,-0.0056,-0.0077,-0.0118,-0.0132,-0.0178,-0.0141,-0.0133,-0.0126,-0.0113,-0.0173,-0.0169,-0.0214,-0.0214,-0.0214,0,0,0.021,0.0205,0.0209,0.0201,0.0182,0.0191,0.0142,0.0142,0.0148,0.0069,0.0064,0.0013,-0.0054,-0.0073,-0.0087,-0.0108,-0.0137,-0.0126,-0.0119,-0.011,-0.0172,-0.0167,-0.0163,-0.0214,-0.0214,-0.0214,0,0,0.0259,0.0243,0.027,0.0261,0.0247,0.0227,0.0233,0.0203,0.0188,0.0176,0.0119,0.0082,0.0024,-0.0017,-0.0048,-0.0024,-0.0092,-0.0048,0.0015,-0.0043,-0.0039,-0.0036,-0.0076,-0.0078,-0.0046,-0.0046,-0.0046,0,0.0275,0.0305,0.0277,0.0298,0.0302,0.0252,0.0282,0.026,0.0227,0.0222,0.0189,0.0106,0.0051,0.0028,0.0031,-0.0004,-0.0045,-0.0007,-0.003,-0.0028,-0.0028,-0.007,-0.0073,-0.004,-0.0041,-0.0042,-0.0042,0,0.034,0.0359,0.0377,0.0387,0.0388,0.0406,0.0379,0.0376,0.0348,0.0316,0.0289,0.0213,0.0163,0.0134,0.009,0.007,0.0038,-0.0008,-0.0043,-0.0015,-0.0062,-0.0068,-0.0032,-0.0034,-0.0036,-0.0037,0,0,0.0394,0.0418,0.0425,0.0446,0.0439,0.0452,0.0468,0.0469,0.0482,0.0424,0.0433,0.0353,0.0302,0.0264,0.0198,0.0146,0.0117,0.0081,0.0075,0.0059,0.0001,-0.0002,-0.001,0.0066,0.0065,0.0065,-0.0029,0,0.0454,0.0519,0.0515,0.0575,0.0605,0.0575,0.06,0.0588,0.0559,0.055,0.0463,0.0437,0.0353,0.0334,0.0269,0.0157,0.0105,0.0147,-0.004,-0.0045,-0.0037,-0.0016,0.0028,-0.005,-0.0035,-0.0036,-0.0037,0,0.0525,0.0559,0.0634,0.0679,0.069,0.0718,0.0749,0.0762,0.0727,0.0703,0.0651,0.0575,0.0503,0.0421,0.025,0.028,0.0157,0.0061,0.0053,0.0006,-0.0059,-0.0082,-0.0062,-0.0288,-0.0046,-0.0045,-0.0045,0,0.0589,0.0647,0.0716,0.0727,0.0764,0.0799,0.0818,0.081,0.0841,0.0801,0.0814,0.0691,0.0652,0.0479,0.0285,0.0262,0.0094,0.0028,-0.009,-0.0092,-0.0112,-0.0114,-0.0316,-0.0094,-0.0094,-0.0093,-0.0093,0,0.066,0.071,0.0754,0.0786,0.0875,0.0872,0.0955,0.0951,0.0967,0.1031,0.0901,0.0924,0.0664,0.0536,0.0332,0.0122,0.0124,-0.0065,-0.0114,-0.0069,-0.0066,-0.0312,-0.0429,-0.0097,-0.0096,-0.0096,-0.0095,0,0.0714,0.0743,0.0821,0.088,0.091,0.097,0.1057,0.1111,0.1116,0.1199,0.12,0.1094,0.0935,0.0673,0.0398,0.0207,-0.0135,-0.0091,-0.0008,-0.0045,-0.0371,-0.0481,-0.072,-0.0842,-0.0242,-0.0242,-0.0243,0,0.0745,0.0795,0.0891,0.0952,0.0985,0.1076,0.1148,0.1183,0.126,0.1326,0.1382,0.1257,0.1214,0.0808,0.0424,0.0068,-0.0151,-0.0121,-0.0166,-0.0371,-0.0531,-0.0618,-0.071,-0.015,-0.0149,-0.0149,-0.0149,0,0.0801,0.084,0.0908,0.1039,0.1131,0.1248,0.1361,0.1453,0.153,0.1611,0.1711,0.1686,0.1305,0.0951,0.0447,0.0205,-0.0268,-0.0128,-0.0373,-0.0494,-0.0569,-0.0713,-0.0102,-0.0147,-0.0147,-0.0147,-0.0147,-0.0147,0.0844,0.0908,0.1015,0.1143,0.1262,0.1438,0.1558,0.1702,0.1872,0.2045,0.1972,0.1994,0.1478,0.0791,0.0389,-0.0266,-0.0297,-0.0454,-0.0574,-0.0647,-0.0755,-0.0123,-0.0204,-0.0204,-0.0205,-0.0205,-0.0205,0,0.0904,0.0991,0.1113,0.1289,0.1446,0.1496,0.1715,0.1859,0.21,0.2249,0.2332,0.2118,0.1469,0.0808,-0.0097,-0.0614,-0.0809,-0.0878,-0.1009,-0.1089,-0.0552,-0.0539,-0.0655,-0.0655,-0.0655,-0.0655,-0.0654,-0.0654,0.0943,0.1075,0.1152,0.143,0.156,0.1787,0.1929,0.2151,0.2311,0.2537,0.258,0.2545,0.2096,0.0394,-0.077,-0.1044,-0.1417,-0.1475,-0.1703,-0.1348,-0.1318,-0.129,-0.1308,-0.1583,-0.1584,-0.2175,-0.218,-0.2185]}],[{"header":{"parameterUnit":"m.s-1","parameterCategory":2,"la1":30.2991,"la2":30.254,"lo1":-89.0895,"lo2":-89.0444,"dy":0.0017,"dx":0.0017,"nx":28,"ny":28,"refTime":"2024-05-26T03:00:00:Z","depth":"2","parameterNumber":2,"parameterNumberName":"U-component_of_CURRENTS"},"data":[0,0,0,0,0,0,0,0,0,0,0,0,0,0,0,0,0,0,0,0,0,0,0,0,0,0,0,0,0,0,0,0,0,0,0,0,0,0,0,0,0,0,0,0,0,0,0,0,0,0,0,0,0,0,0,0,0,0,0.2912,0.2913,0,0.3026,0.3028,0.3029,0.3021,0.3019,0.3017,0.3015,0.3135,0.314,0.3145,0,0,0,0,0,0,0,0,0,0,0,0,0,0.2773,0.2776,0.2912,0.2913,0.2914,0.3026,0.3028,0.303,0.3021,0.3019,0.3017,0.3015,0.3133,0.3139,0.3145,0,0,0,0,0,0,0,0,0,0,0,0,0,0.2857,0.2776,0.2911,0.2922,0.2924,0.3026,0.3028,0.303,0.3022,0.3019,0.3016,0.3014,0.3132,0.3139,0.3146,0.3247,0,0,0.3168,0.3172,0,0,0,0,0,0,0,0,0.2852,0.2862,0.2919,0.2922,0.2924,0.3005,0.3023,0.3102,0.3022,0.2986,0.3015,0.3012,0.3093,0.3104,0.3133,0.3253,0.3258,0.3169,0.3174,0.3177,0.3179,0,0,0,0,0,0,0,0.2846,0.2857,0.2959,0.2921,0.2924,0.2952,0.296,0.3039,0.3055,0.2989,0.2989,0.3,0.3094,0.3126,0.3136,0.326,0.3169,0.3175,0.318,0.3183,0.3433,0.3435,0,0,0,0,0,0,0.2828,0.2852,0.2955,0.2962,0.2879,0.2956,0.2965,0.2983,0.3054,0.3062,0.3002,0.2999,0.3115,0.3128,0.314,0.3265,0.3177,0.3184,0.3188,0.3431,0.3434,0.3436,0,0,0,0,0,0,0.2825,0.2836,0.295,0.2907,0.2924,0.296,0.2982,0.2987,0.3028,0.3064,0.3071,0.3037,0.3113,0.313,0.3225,0.3268,0.3187,0.3194,0.3428,0.3432,0.3435,0.3513,0,0,0,0,0,0,0.282,0.2835,0.2855,0.2907,0.2925,0.3033,0.2984,0.2991,0.3037,0.3035,0.3097,0.3104,0.3113,0.3214,0.3232,0.3277,0.3199,0.3425,0.343,0.3434,0.3508,0.3519,0.3528,0,0,0,0,0,0.2815,0.2864,0.2856,0.2868,0.2948,0.3035,0.305,0.3066,0.3042,0.3087,0.3116,0.3102,0.3251,0.3223,0.3244,0.3292,0.3423,0.3429,0.3433,0.3503,0.3516,0.3528,0,0,0,0,0,0,0.2817,0.2869,0.286,0.2921,0.2977,0.3033,0.3085,0.3086,0.3148,0.3145,0.3157,0.317,0.3265,0.3276,0.3243,0.3372,0.3327,0.3336,0.3372,0.3385,0.3395,0.3391,0.3206,0,0,0,0,0,0.2825,0.2875,0.2922,0.2975,0.3008,0.3048,0.3087,0.3099,0.3152,0.3175,0.3213,0.3251,0.3307,0.334,0.3396,0.349,0.3467,0.3524,0.3535,0.3543,0.3553,0.3542,0.3552,0.3452,0.3452,0.3452,0,0,0.2838,0.2875,0.2901,0.2979,0.3025,0.3086,0.3067,0.3145,0.3187,0.3184,0.3271,0.3307,0.3342,0.3432,0.3473,0.3444,0.3564,0.355,0.3557,0.3562,0.3548,0.3558,0.3566,0.3456,0.3455,0.3455,0,0,0.2889,0.2929,0.298,0.3035,0.3108,0.3142,0.3165,0.3236,0.3265,0.3353,0.3351,0.3416,0.3504,0.3536,0.3559,0.3667,0.3624,0.3677,0.3726,0.3717,0.3724,0.373,0.3725,0.373,0.3674,0.3674,0.3674,0,0.2893,0.2965,0.3014,0.3075,0.3123,0.3165,0.3227,0.328,0.3365,0.34,0.3385,0.3507,0.3549,0.3636,0.3671,0.3692,0.3671,0.3676,0.3728,0.3733,0.3738,0.3731,0.3735,0.3678,0.3678,0.3677,0.3677,0,0.2975,0.3033,0.3084,0.3161,0.3221,0.3303,0.3361,0.3425,0.3453,0.3487,0.3585,0.3638,0.3694,0.3724,0.3739,0.3808,0.3778,0.3745,0.369,0.3753,0.3741,0.3745,0.3684,0.3683,0.3682,0.3681,0,0,0.2974,0.311,0.3122,0.3148,0.3277,0.3313,0.3421,0.3513,0.3533,0.363,0.3663,0.3794,0.3802,0.383,0.3852,0.3863,0.39,0.3826,0.3824,0.3811,0.3876,0.3895,0.39,0.3862,0.3863,0.3863,0.3857,0,0.302,0.3116,0.3193,0.3275,0.3326,0.3408,0.3481,0.3559,0.3615,0.366,0.3738,0.3786,0.3844,0.3853,0.3891,0.3894,0.391,0.3905,0.3826,0.3825,0.3825,0.3905,0.3633,0.3608,0.3859,0.386,0.386,0,0.3063,0.312,0.3204,0.3289,0.3319,0.3373,0.3458,0.3531,0.363,0.367,0.3756,0.3789,0.3887,0.3871,0.3946,0.3933,0.3926,0.3917,0.3914,0.3907,0.3851,0.3586,0.3603,0.3865,0.3864,0.3864,0.3864,0,0.2986,0.3116,0.3169,0.3208,0.332,0.3364,0.3431,0.3532,0.3583,0.3667,0.3695,0.3797,0.384,0.3862,0.3939,0.3914,0.397,0.3914,0.3928,0.3927,0.3671,0.3649,0.3933,0.3933,0.3933,0.3933,0.3933,0,0.299,0.3022,0.3125,0.3144,0.3185,0.3287,0.3334,0.3414,0.3512,0.3575,0.3687,0.3748,0.3835,0.3902,0.3924,0.398,0.3971,0.3962,0.3938,0.3696,0.3677,0.3873,0.3866,0.3932,0.3932,0.3932,0.3932,0,0.2891,0.2974,0.3015,0.3119,0.3148,0.3164,0.3284,0.3306,0.3431,0.351,0.3545,0.3713,0.3828,0.3916,0.3956,0.3973,0.3993,0.4002,0.3739,0.3687,0.3945,0.3943,0.398,0.3981,0.3982,0.3983,0.3983,0,0.2854,0.2868,0.2953,0.2964,0.3015,0.3067,0.3102,0.3243,0.3295,0.3504,0.3536,0.3694,0.3815,0.3931,0.3964,0.4003,0.404,0.3751,0.3675,0.3984,0.3955,0.3951,0.3948,0.3349,0.3344,0.334,0.3337,0,0.2775,0.2801,0.2829,0.2859,0.2889,0.2928,0.3014,0.3045,0.3229,0.3323,0.3491,0.3604,0.3781,0.3743,0.3834,0.3808,0.3728,0.3678,0.403,0.342,0.3399,0.3368,0.3382,0.3303,0.3306,0.3309,0.331,0.3312,0.2706,0.27,0.274,0.2759,0.2783,0.2815,0.282,0.293,0.3022,0.3163,0.335,0.344,0.3523,0.3554,0.3468,0.3402,0.3649,0.3462,0.3468,0.3479,0.3448,0.3434,0.3338,0.3341,0.3344,0.3347,0.3349,0,0.263,0.2639,0.2645,0.2666,0.265,0.2715,0.2768,0.2758,0.2835,0.3001,0.3133,0.2971,0.3003,0.3062,0.2944,0.2975,0.2866,0.2824,0.2646,0.2688,0.2723,0.2645,0.2325,0.2321,0.2317,0.2313,0,0,0.2592,0.2569,0.2579,0.2544,0.2556,0.2522,0.2537,0.2539,0.2621,0.2626,0.2663,0.2923,0.3053,0.2665,0.2628,0.2459,0.2534,0.236,0.3203,0.3042,0.3071,0.3141,0.3079,0,0,0,0,0]},{"header":{"parameterUnit":"m.s-1","parameterCategory":2,"la1":30.2991,"la2":30.254,"lo1":-89.0895,"lo2":-89.0444,"dy":0.0017,"dx":0.0017,"nx":28,"ny":28,"refTime":"2024-05-26T03:00:00:Z","depth":"2","parameterNumber":3,"parameterNumberName":"V-component_of_CURRENTS"},"data":[0,0,0,0,0,0,0,0,0,0,0,0,0,0,0,0,0,0,0,0,0,0,0,0,0,0,0,0,0,0,0,0,0,0,0,0,0,0,0,0,0,0,0,0,0,0,0,0,0,0,0,0,0,0,0,0,0,0,0.0056,0.0055,0,-0.0013,-0.0014,-0.0015,-0.0078,-0.0079,-0.0079,-0.008,-0.0188,-0.0191,-0.0193,0,0,0,0,0,0,0,0,0,0,0,0,0,0.0074,0.0075,0.0056,0.0055,0.0054,-0.0013,-0.0014,-0.0015,-0.0078,-0.0079,-0.0079,-0.008,-0.0187,-0.019,-0.0193,0,0,0,0,0,0,0,0,0,0,0,0,0,0.004,0.0075,0.0056,0.0017,0.0013,-0.0013,-0.0014,-0.0016,-0.0078,-0.0079,-0.0079,-0.008,-0.0186,-0.019,-0.0194,-0.02,0,0,-0.0205,-0.0206,0,0,0,0,0,0,0,0,0.0042,0.0039,0.0023,0.002,0.0015,-0.0036,-0.0047,-0.0078,-0.0078,-0.0046,-0.008,-0.0081,-0.0139,-0.0146,-0.016,-0.0205,-0.0209,-0.0205,-0.0207,-0.0209,-0.021,0,0,0,0,0,0,0,0.0044,0.0041,0.0026,0.0023,0.0018,-0.0017,-0.0022,-0.0054,-0.009,-0.0049,-0.0053,-0.0056,-0.0142,-0.0157,-0.0163,-0.0211,-0.0205,-0.0208,-0.021,-0.0212,-0.0289,-0.0288,0,0,0,0,0,0,0.0062,0.0044,0.0028,0.0024,0.003,-0.0016,-0.0022,-0.0021,-0.0089,-0.0099,-0.0055,-0.0059,-0.015,-0.0159,-0.0168,-0.0165,-0.0209,-0.0212,-0.0214,-0.0289,-0.0289,-0.0288,0,0,0,0,0,0,0.0063,0.0062,0.0031,0.0034,0.0028,-0.0015,-0.0013,-0.0021,-0.0032,-0.0093,-0.0104,-0.0056,-0.0151,-0.0163,-0.0184,-0.017,-0.0214,-0.0217,-0.0289,-0.0289,-0.0289,-0.0168,0,0,0,0,0,0,0.0064,0.0063,0.0068,0.0036,0.0029,0.0031,-0.0012,-0.0022,-0.0031,-0.0036,-0.0097,-0.0108,-0.0153,-0.0178,-0.0188,-0.0176,-0.022,-0.0289,-0.0289,-0.0289,-0.0172,-0.0164,-0.0157,0,0,0,0,0,0.0065,0.0087,0.0068,0.0066,0.0038,0.0032,0.0026,-0.001,-0.003,-0.0024,-0.0066,-0.0106,-0.0185,-0.018,-0.0191,-0.018,-0.0289,-0.0289,-0.0289,-0.0176,-0.0166,-0.0157,0,0,0,0,0,0,0.0099,0.0082,0.0061,0.0076,0.0059,0.0023,0.0026,0.0002,-0.0027,-0.0033,-0.0094,-0.0108,-0.0125,-0.017,-0.0164,-0.0206,-0.0248,-0.0249,-0.0158,-0.0149,-0.0141,-0.0113,-0.0223,0,0,0,0,0,0.0109,0.0121,0.0094,0.0107,0.0102,0.0065,0.0057,0.0036,0.0007,-0.0006,-0.0047,-0.0097,-0.0134,-0.0153,-0.0193,-0.0206,-0.0254,-0.0213,-0.0205,-0.0198,-0.0185,-0.0247,-0.0243,-0.0288,-0.0288,-0.0288,0,0,0.0124,0.0118,0.0123,0.0114,0.0096,0.0105,0.0058,0.0059,0.0066,-0.0013,-0.0015,-0.0065,-0.0131,-0.0148,-0.0161,-0.0183,-0.0209,-0.0198,-0.0191,-0.0182,-0.0246,-0.0242,-0.0238,-0.0287,-0.0288,-0.0288,0,0,0.0173,0.0157,0.0184,0.0175,0.0162,0.0142,0.0149,0.012,0.0107,0.0097,0.004,0.0006,-0.0051,-0.0091,-0.0121,-0.0095,-0.0164,-0.0118,-0.0054,-0.0113,-0.011,-0.0107,-0.0149,-0.0152,-0.0115,-0.0115,-0.0115,0,0.0189,0.0219,0.0191,0.0212,0.0217,0.0167,0.0198,0.0178,0.0146,0.0142,0.011,0.003,-0.0023,-0.0045,-0.004,-0.0074,-0.0118,-0.0077,-0.0101,-0.0099,-0.0099,-0.0143,-0.0147,-0.0109,-0.011,-0.011,-0.0111,0,0.0253,0.0273,0.0291,0.0301,0.0303,0.0323,0.0296,0.0294,0.0268,0.0237,0.0212,0.0139,0.009,0.0063,0.002,0.0001,-0.0033,-0.0079,-0.0115,-0.0086,-0.0136,-0.0142,-0.0101,-0.0103,-0.0105,-0.0106,0,0,0.0305,0.0332,0.0339,0.0361,0.0355,0.0368,0.0385,0.0387,0.0398,0.0345,0.0353,0.0279,0.0229,0.0192,0.0128,0.0076,0.0046,0.0011,0.0005,-0.0014,-0.0076,-0.0082,-0.0091,-0.0007,-0.0007,-0.0008,-0.0107,0,0.0365,0.0431,0.0429,0.049,0.052,0.0491,0.0516,0.0504,0.0475,0.0464,0.0383,0.0356,0.028,0.0259,0.0198,0.0083,0.0032,0.0077,-0.0116,-0.0122,-0.0117,-0.0097,-0.0071,-0.0156,-0.0113,-0.0114,-0.0115,0,0.0435,0.047,0.0547,0.0592,0.0604,0.0632,0.066,0.0674,0.0638,0.0614,0.0563,0.0487,0.0419,0.0341,0.0171,0.0202,0.008,-0.0016,-0.0023,-0.0074,-0.014,-0.0184,-0.0169,-0.0127,-0.0126,-0.0125,-0.0124,0,0.0497,0.0558,0.0628,0.064,0.0676,0.0713,0.0732,0.0721,0.0749,0.0707,0.0713,0.0597,0.0556,0.0388,0.0197,0.0177,0.0003,-0.0057,-0.0176,-0.0178,-0.0215,-0.0219,-0.0179,-0.0179,-0.0179,-0.0178,-0.0178,0,0.0567,0.0619,0.0664,0.0698,0.0785,0.0784,0.0862,0.0859,0.0869,0.0922,0.0798,0.0808,0.0563,0.0433,0.0238,0.0029,0.003,-0.0153,-0.0202,-0.0172,-0.0171,-0.0199,-0.02,-0.0182,-0.0181,-0.0181,-0.018,0,0.0619,0.065,0.0729,0.079,0.0819,0.0878,0.0961,0.1007,0.1008,0.1076,0.1075,0.0961,0.0798,0.055,0.028,0.0101,-0.0114,-0.0192,-0.0126,-0.0166,-0.0269,-0.0263,-0.034,-0.0341,-0.0342,-0.0343,-0.0344,0,0.065,0.07,0.0797,0.0855,0.0889,0.0977,0.1044,0.1076,0.1139,0.1186,0.1229,0.1098,0.1033,0.0636,0.0278,-0.0061,-0.0106,-0.0249,-0.0288,-0.0243,-0.0285,-0.0277,-0.027,-0.0294,-0.0294,-0.0294,-0.0294,0,0.0703,0.0742,0.0809,0.0934,0.1021,0.1132,0.1235,0.1308,0.1374,0.1427,0.1488,0.1443,0.108,0.0724,0.0257,0.0035,-0.0197,-0.0262,-0.0245,-0.0245,-0.0205,-0.0243,-0.0237,-0.0295,-0.0295,-0.0295,-0.0295,-0.0295,0.0742,0.0802,0.0905,0.1026,0.1138,0.1296,0.1396,0.1511,0.1641,0.1744,0.1685,0.1623,0.1216,0.0611,0.0201,-0.0218,-0.02,-0.0346,-0.0344,-0.0342,-0.0307,-0.027,-0.0365,-0.0365,-0.0365,-0.0365,-0.0366,0,0.079,0.0874,0.0989,0.115,0.1288,0.1349,0.1533,0.1629,0.18,0.1876,0.1912,0.1531,0.1129,0.0674,0.0039,-0.0334,-0.0364,-0.0435,-0.0404,-0.0399,-0.0396,-0.0364,-0.0437,-0.0439,-0.044,-0.0441,0,0,0.0821,0.0938,0.1009,0.1256,0.1383,0.1579,0.1698,0.1838,0.1929,0.1982,0.1942,0.1834,0.1277,0.0801,0.0278,-0.0083,-0.0143,-0.0139,-0.0038,0.0067,0.0074,-0.03,-0.0239,0,0,0,0,0]}],[{"header":{"parameterUnit":"m.s-1","parameterCategory":2,"la1":30.2991,"la2":30.254,"lo1":-89.0895,"lo2":-89.0444,"dy":0.0017,"dx":0.0017,"nx":28,"ny":28,"refTime":"2024-05-26T03:00:00:Z","depth":"4","parameterNumber":2,"parameterNumberName":"U-component_of_CURRENTS"},"data":[0,0,0,0,0,0,0,0,0,0,0,0,0,0,0,0,0,0,0,0,0,0,0,0,0,0,0,0,0,0,0,0,0,0,0,0,0,0,0,0,0,0,0,0,0,0,0,0,0,0,0,0,0,0,0,0,0,0,0.1773,0.1774,0,0.1806,0.1806,0.1806,0.188,0.1881,0.1883,0.1885,0.1941,0.1941,0.1941,0,0,0,0,0,0,0,0,0,0,0,0,0,0.1703,0.1704,0.1773,0.1774,0.1775,0.1806,0.1806,0.1806,0.1879,0.1881,0.1884,0.1885,0.1941,0.1941,0.1941,0,0,0,0,0,0,0,0,0,0,0,0,0,0.1732,0.1704,0.1773,0.1816,0.1821,0.1806,0.1806,0.1806,0.1879,0.1882,0.1884,0.1886,0.1941,0.1941,0.1941,0.1889,0,0,0.1941,0.1941,0,0,0,0,0,0,0,0,0.173,0.1734,0.1809,0.1813,0.1818,0.1843,0.1802,0.1836,0.1878,0.1855,0.1885,0.1888,0.191,0.1913,0.191,0.1892,0.1894,0.1941,0.194,0.194,0.194,0,0,0,0,0,0,0,0.1728,0.1733,0.1784,0.181,0.1815,0.181,0.1817,0.1808,0.1866,0.1857,0.1863,0.1869,0.1913,0.191,0.1912,0.1895,0.1941,0.194,0.194,0.194,0.2045,0.2048,0,0,0,0,0,0,0.173,0.1731,0.1783,0.1785,0.1782,0.1809,0.1817,0.1831,0.1866,0.1874,0.1867,0.1872,0.1909,0.1912,0.1914,0.2021,0.194,0.194,0.194,0.2043,0.2046,0.2049,0,0,0,0,0,0,0.1728,0.1734,0.1782,0.176,0.1766,0.1809,0.1822,0.183,0.187,0.1874,0.1883,0.1904,0.1911,0.1914,0.1972,0.2018,0.194,0.194,0.2039,0.2044,0.2048,0.2128,0,0,0,0,0,0,0.1726,0.1733,0.1754,0.1761,0.1768,0.1797,0.182,0.1829,0.1868,0.1877,0.1907,0.1913,0.1913,0.1973,0.1972,0.2016,0.194,0.2035,0.2041,0.2046,0.2122,0.2134,0.2145,0,0,0,0,0,0.1723,0.1727,0.1754,0.1761,0.1791,0.1797,0.18,0.1836,0.1868,0.1882,0.1933,0.1914,0.2007,0.1975,0.1973,0.2018,0.2033,0.204,0.2046,0.2116,0.2132,0.2145,0,0,0,0,0,0,0.1705,0.1735,0.1765,0.1781,0.1804,0.1811,0.1824,0.1852,0.1898,0.1926,0.1938,0.1947,0.2017,0.2007,0.1971,0.207,0.2021,0.2027,0.2075,0.2089,0.2101,0.2105,0.194,0,0,0,0,0,0.1711,0.173,0.1755,0.1774,0.1784,0.1813,0.1826,0.1858,0.1891,0.1916,0.1952,0.1995,0.2031,0.2055,0.2079,0.2116,0.2122,0.2151,0.2163,0.2172,0.2179,0.224,0.2257,0.207,0.207,0.207,0,0,0.1709,0.173,0.1743,0.1773,0.1792,0.1818,0.1828,0.1859,0.1908,0.1911,0.2002,0.2033,0.2052,0.2115,0.2145,0.2119,0.2232,0.2181,0.2189,0.2189,0.2248,0.2266,0.2282,0.2075,0.2074,0.2073,0,0,0.1704,0.1736,0.1751,0.1772,0.1814,0.1836,0.1855,0.1899,0.1948,0.2014,0.2054,0.2123,0.216,0.2205,0.2222,0.2308,0.2293,0.2321,0.2381,0.2441,0.2456,0.247,0.2507,0.2523,0.2327,0.2327,0.2327,0,0.171,0.1735,0.1755,0.1776,0.1807,0.1851,0.1884,0.1925,0.1999,0.205,0.2059,0.2182,0.2201,0.2291,0.2337,0.2333,0.236,0.232,0.2455,0.2468,0.2481,0.2516,0.2532,0.2332,0.2331,0.2331,0.2331,0,0.1708,0.1747,0.1753,0.181,0.1843,0.1873,0.1936,0.2005,0.207,0.2117,0.2233,0.2278,0.2359,0.2377,0.2381,0.2494,0.2481,0.246,0.2412,0.2504,0.2535,0.2551,0.2339,0.2337,0.2336,0.2334,0,0,0.1672,0.1743,0.175,0.1793,0.1869,0.1892,0.1989,0.2077,0.2156,0.2237,0.234,0.2421,0.247,0.2496,0.2529,0.2578,0.2692,0.2568,0.2568,0.2593,0.2824,0.2647,0.2646,0.2701,0.2704,0.2707,0.2811,0,0.1675,0.1723,0.1766,0.1837,0.1869,0.1955,0.2033,0.213,0.2221,0.2333,0.2409,0.2511,0.2508,0.2574,0.2629,0.2685,0.2738,0.2665,0.2741,0.2742,0.2564,0.266,0.2717,0.2823,0.2826,0.2829,0.2831,0,0.1654,0.1697,0.1764,0.1868,0.1891,0.1956,0.2106,0.2187,0.2342,0.2417,0.254,0.2605,0.2736,0.2703,0.2841,0.2801,0.2829,0.2844,0.2848,0.2662,0.2594,0.2713,0.2859,0.2857,0.2855,0.2853,0.2851,0,0.1605,0.1693,0.1757,0.1789,0.191,0.1988,0.2074,0.2225,0.2317,0.2504,0.2589,0.2728,0.2828,0.289,0.2948,0.2919,0.3061,0.3018,0.2879,0.2867,0.2956,0.294,0.3104,0.3104,0.3104,0.3103,0.3103,0,0.1574,0.1625,0.1749,0.178,0.1876,0.1978,0.2108,0.2219,0.239,0.249,0.2647,0.2743,0.2884,0.2978,0.2998,0.2991,0.3113,0.2905,0.2889,0.2989,0.2976,0.2967,0.295,0.3107,0.3106,0.3106,0.3105,0,0.151,0.1588,0.1664,0.1804,0.1857,0.1935,0.2122,0.2207,0.2386,0.2533,0.2606,0.2805,0.2921,0.3018,0.3124,0.3042,0.3055,0.3018,0.3133,0.3118,0.2808,0.2794,0.2872,0.2867,0.2862,0.2858,0.2855,0,0.1478,0.1513,0.1663,0.1716,0.1794,0.1924,0.2007,0.2195,0.2286,0.2534,0.2586,0.2782,0.2885,0.2903,0.3005,0.3039,0.2998,0.2982,0.2876,0.2811,0.2789,0.2782,0.2774,0.2848,0.2847,0.2846,0.2845,0,0.1416,0.1486,0.1547,0.1656,0.1756,0.1843,0.1982,0.2032,0.2235,0.2419,0.252,0.2597,0.2719,0.2795,0.2849,0.2858,0.2978,0.2935,0.2942,0.2843,0.2783,0.2764,0.2762,0.2829,0.2832,0.2833,0.2834,0,0.1369,0.1398,0.1488,0.1575,0.1678,0.1724,0.1813,0.1916,0.2025,0.229,0.2314,0.2512,0.2686,0.2702,0.2748,0.2754,0.2704,0.26,0.2624,0.2642,0.2517,0.2404,0.2334,0,0,0,0,0,0.1312,0.1334,0.1399,0.1475,0.1565,0.163,0.177,0.1861,0.2054,0.2071,0.2189,0.2289,0.2378,0.2485,0.2446,0.2637,0.2705,0.2577,0.2594,0.2744,0.2762,0.2634,0,0,0,0,0,0,0.1274,0.1328,0.1356,0.1364,0.1399,0.1484,0.1563,0.1695,0.1716,0.1924,0.1993,0.2153,0.2281,0.2385,0.2407,0.2436,0.2398,0.2705,0.2699,0.2734,0.275,0.2764,0.2639,0,0,0,0,0]},{"header":{"parameterUnit":"m.s-1","parameterCategory":2,"la1":30.2991,"la2":30.254,"lo1":-89.0895,"lo2":-89.0444,"dy":0.0017,"dx":0.0017,"nx":28,"ny":28,"refTime":"2024-05-26T03:00:00:Z","depth":"4","parameterNumber":3,"parameterNumberName":"V-component_of_CURRENTS"},"data":[0,0,0,0,0,0,0,0,0,0,0,0,0,0,0,0,0,0,0,0,0,0,0,0,0,0,0,0,0,0,0,0,0,0,0,0,0,0,0,0,0,0,0,0,0,0,0,0,0,0,0,0,0,0,0,0,0,0,-0.0002,-0.0002,0,-0.0037,-0.0037,-0.0038,-0.0089,-0.0089,-0.009,-0.0091,-0.016,-0.0161,-0.0162,0,0,0,0,0,0,0,0,0,0,0,0,0,-0.0005,-0.0004,-0.0002,-0.0002,-0.0002,-0.0037,-0.0037,-0.0038,-0.0089,-0.0089,-0.009,-0.0091,-0.0159,-0.0161,-0.0162,0,0,0,0,0,0,0,0,0,0,0,0,0,-0.0019,-0.0004,-0.0002,-0.0031,-0.0034,-0.0037,-0.0037,-0.0038,-0.0088,-0.009,-0.0091,-0.0092,-0.0159,-0.0161,-0.0162,-0.015,0,0,-0.0167,-0.0168,0,0,0,0,0,0,0,0,-0.0018,-0.0019,-0.0026,-0.0029,-0.0032,-0.0058,-0.0064,-0.0077,-0.0088,-0.0069,-0.0091,-0.0092,-0.0127,-0.0132,-0.0137,-0.0153,-0.0156,-0.0168,-0.0169,-0.0169,-0.017,0,0,0,0,0,0,0,-0.0017,-0.0018,-0.0017,-0.0026,-0.003,-0.0051,-0.0054,-0.0066,-0.0093,-0.0071,-0.0074,-0.0076,-0.0129,-0.0135,-0.0139,-0.0157,-0.0167,-0.0169,-0.017,-0.0171,-0.0189,-0.0188,0,0,0,0,0,0,-0.0007,-0.0017,-0.0016,-0.0018,-0.0026,-0.005,-0.0053,-0.005,-0.0092,-0.0099,-0.0075,-0.0078,-0.0132,-0.0137,-0.0142,-0.0131,-0.0169,-0.0171,-0.0172,-0.0189,-0.0189,-0.0188,0,0,0,0,0,0,-0.0007,-0.0007,-0.0015,-0.0018,-0.002,-0.0048,-0.0044,-0.005,-0.0059,-0.0094,-0.0103,-0.0077,-0.0133,-0.0139,-0.0147,-0.0134,-0.0172,-0.0173,-0.019,-0.0189,-0.0189,-0.0109,0,0,0,0,0,0,-0.0007,-0.0006,-0.0002,-0.0017,-0.0019,-0.0007,-0.0043,-0.005,-0.0057,-0.0062,-0.0099,-0.0107,-0.0134,-0.0145,-0.0149,-0.0137,-0.0174,-0.0191,-0.019,-0.0189,-0.0113,-0.0106,-0.01,0,0,0,0,0,-0.0007,0.0013,-0.0001,-0.0001,-0.0011,-0.0005,-0.0008,-0.0034,-0.0056,-0.0049,-0.0077,-0.0106,-0.0142,-0.0145,-0.015,-0.0139,-0.0191,-0.019,-0.0189,-0.0115,-0.0107,-0.01,0,0,0,0,0,0,0.0015,0.001,-0.0006,0.001,0.0004,-0.0013,-0.0009,-0.0027,-0.0044,-0.0053,-0.0092,-0.0101,-0.0107,-0.0131,-0.0133,-0.0143,-0.0174,-0.0174,-0.0116,-0.0109,-0.0103,-0.0089,-0.0176,0,0,0,0,0,0.0023,0.0035,0.0023,0.0036,0.0035,0.0012,0.001,-0.0006,-0.0021,-0.003,-0.0056,-0.0085,-0.0104,-0.0113,-0.0134,-0.0131,-0.0173,-0.013,-0.0124,-0.0118,-0.0111,-0.0172,-0.017,-0.0184,-0.0184,-0.0184,0,0,0.0035,0.0034,0.0039,0.0042,0.0032,0.0045,0.0008,0.0012,0.0022,-0.0034,-0.003,-0.0063,-0.0099,-0.01,-0.0105,-0.0119,-0.0135,-0.0117,-0.0112,-0.0108,-0.017,-0.0169,-0.0168,-0.0184,-0.0184,-0.0184,0,0,0.0072,0.0064,0.0086,0.0087,0.0082,0.0072,0.0076,0.0061,0.0053,0.0055,0.0013,-0.0008,-0.0032,-0.0055,-0.007,-0.0041,-0.0102,-0.0053,-0.0006,-0.0064,-0.0064,-0.0064,-0.0106,-0.011,-0.0048,-0.0047,-0.0047,0,0.0083,0.011,0.0094,0.0116,0.0124,0.0088,0.0115,0.0107,0.0092,0.0087,0.0066,0.0019,-0.001,-0.0018,-0.0008,-0.0026,-0.0069,-0.0029,-0.0056,-0.0057,-0.0058,-0.0102,-0.0108,-0.0044,-0.0044,-0.0044,-0.0045,0,0.0136,0.0155,0.0171,0.0185,0.0193,0.0211,0.02,0.0202,0.0182,0.0162,0.0146,0.0104,0.0074,0.0061,0.0038,0.002,-0.001,-0.0043,-0.0073,-0.0052,-0.0099,-0.0107,-0.0038,-0.0039,-0.004,-0.0041,0,0,0.0166,0.02,0.0205,0.0225,0.0231,0.0247,0.0267,0.0271,0.0277,0.0246,0.0248,0.0211,0.017,0.015,0.011,0.0067,0.0027,0.0016,0.0011,-0.0021,-0.0097,-0.0099,-0.0108,-0.0019,-0.002,-0.0021,-0.0122,0,0.021,0.0266,0.0274,0.0327,0.0352,0.034,0.0364,0.0359,0.0339,0.033,0.0275,0.0258,0.0209,0.0197,0.0144,0.0055,0.0008,0.0058,-0.0116,-0.0121,-0.0122,-0.0117,-0.0024,-0.0129,-0.013,-0.0132,-0.0133,0,0.0259,0.029,0.0353,0.0397,0.0407,0.0436,0.0459,0.0478,0.0451,0.0433,0.0394,0.0339,0.0289,0.0238,0.0093,0.0122,0.0024,-0.0051,-0.0058,-0.0093,-0.0137,-0.0158,-0.0148,-0.0146,-0.0145,-0.0144,-0.0143,0,0.0289,0.0347,0.0402,0.0417,0.0459,0.0489,0.0511,0.0505,0.0527,0.0498,0.0495,0.0406,0.0374,0.0236,0.0089,0.0082,-0.0083,-0.0117,-0.0212,-0.0213,-0.0216,-0.0216,-0.0227,-0.0227,-0.0227,-0.0227,-0.0226,0,0.0331,0.0373,0.0423,0.0452,0.0519,0.0533,0.0591,0.0595,0.0604,0.0625,0.0552,0.0538,0.0368,0.0254,0.0105,-0.0069,-0.0077,-0.02,-0.0241,-0.0179,-0.0173,-0.0222,-0.0219,-0.0231,-0.023,-0.0229,-0.0228,0,0.0352,0.0386,0.0451,0.051,0.0539,0.0585,0.0659,0.0686,0.0694,0.0721,0.072,0.0633,0.0485,0.0307,0.0087,-0.0034,-0.0208,-0.0271,-0.0174,-0.0208,-0.0304,-0.0297,-0.0387,-0.0388,-0.0388,-0.0389,-0.039,0,0.0367,0.0405,0.0494,0.0536,0.0569,0.0642,0.0689,0.0729,0.0763,0.0773,0.0784,0.0673,0.0587,0.0292,0.009,-0.019,-0.0234,-0.0321,-0.0326,-0.029,-0.0321,-0.0312,-0.0304,-0.0391,-0.0391,-0.0391,-0.0392,0,0.0386,0.0421,0.0468,0.0558,0.0624,0.0703,0.0775,0.0808,0.0851,0.0868,0.0837,0.0695,0.0531,0.0297,0.0086,-0.012,-0.0262,-0.033,-0.033,-0.0336,-0.0297,-0.0325,-0.0316,-0.0394,-0.0394,-0.0394,-0.0394,0,0.0389,0.0422,0.0486,0.0564,0.0652,0.0726,0.0772,0.0817,0.086,0.0881,0.0866,0.0704,0.062,0.0332,0.0133,-0.0062,-0.0122,-0.019,-0.0199,-0.0198,-0.0117,-0.0038,-0.0087,0,0,0,0,0,0.038,0.0411,0.0484,0.0569,0.0659,0.0717,0.0808,0.0846,0.0898,0.0887,0.0885,0.0736,0.0462,0.0346,0.0149,0.0082,-0.018,-0.0158,-0.0269,-0.041,-0.0407,-0.0344,0,0,0,0,0,0,0.0367,0.0424,0.0467,0.0557,0.0621,0.0721,0.0783,0.0823,0.0823,0.0853,0.0713,0.0684,0.0412,0.0577,0.0146,0.0088,-0.0011,-0.0273,-0.0277,-0.0412,-0.0409,-0.0406,-0.0341,0,0,0,0,0]}]]